Location: Briis
(48.6240°N, 2.1211°E)
Time: 10:48:07
(UTC+00:00)

Lacrosse 5 - Pass Details

Date: 25 September 2020
Orbit: 716 x 723 km, 57.0° (Epoch: 23 October)

Event Time Altitude Azimuth Distance (km) Brightness Sun altitude
Exits shadow 04:37:39 - 298° (WNW) 2,339 4.1 -11.5°
Reaches altitude 10° 04:38:03 10° 300° (WNW) 2,207 3.9 -11.5°
Maximum altitude 04:42:36 32° 3° (N) 1,231 3.2 -10.7°
Drops below altitude 10° 04:47:09 10° 67° (ENE) 2,210 5.9 -10.0°
Sets 04:49:46 0° 77° (ENE) 3,132 7.5 -9.6°
